Kosmos-2316

operational
NORAD ID: 23620 Int'l Des: 1995-037 Owner: VKS/IACG Country: RU Constellation: GLONASS
MEOCIRCULAR

关于 Kosmos-2316

正在加载描述...

实时位置

正在加载3D地球...

即将过境

高度历史

Altitude vs Time

uPlot chart will show altitude changes over time

两行轨道根数

1 23620U 95037A 25352.35568573 .00000103 00000-0 00000-0 0 9990
2 23620 65.4665 208.6580 0012853 153.5440 32.2639 2.13101964236583
Epoch: Dec 18, 2025 • Age: 74 hours

当前状态

高度 19148.5 km
速度 3.95 km/s
星下点 29.62°N, 25.57°W
发射日期 Jul 24, 1995
运行时间 30.4 years
类型 other

技术详情

分类 Payload
质量 1300.00 kg
干质量 1200.00 kg
总质量 1300.00 kg
长度 4.00 m
直径 1.50 m
跨度 7.80 m
形状 Cyl + Ant + 2 Pan
制造商 POL
平台类型 Uragan
阶段状态 In Orbit
所有者/国家 VKS/IACG/RU

大型星座

Loading constellations...